Tracking 19795 objects as of 18-Jul-2019
HD Live streaming from Space Station
objects crossing your sky now

COSMOS 1275 DEB

Track COSMOS 1275 DEB now!
10-day predictions


NORAD ID: 42187
Int'l Code: 1981-053TB
Perigee: 873.2 km
Apogee: 972.3 km
Inclination: 83.0 °
Period: 103.3 minutes
Semi major axis: 7293 km
RCS: Unknown
Launch date: June 4, 1981
Source: Commonwealth of Independent States (former USSR) (CIS)
Launch site: PLESETSK MISSILE AND SPACE COMPLEX (PKMTR)

Note: This is SATELLITE DEBRIS
aabbcc
Your satellite tracking list
Your tracking list is empty




NASA's NSSDC Master Catalog

Two Line Element Set (TLE):
1 42187U 81053TB  19196.03547670 +.00000354 +00000-0 +25149-3 0  9993
2 42187 082.9702 299.9402 0067999 134.0663 226.6131 13.93722754286707
Source of the keplerian elements: AFSPC